Teterboro, NJ

5:12 PM EDT on June 28, 2017 (GMT -0400)
Teterboro

Weather History for KTEB - February, 2014

Change the Weather History Date:

Thursday, February 27, 2014

  Actual Average Record
Temperature  
Mean Temperature 23 °F -  
Max Temperature 32 °F 43 °F 72 °F (1997)
Min Temperature 14 °F 28 °F 14 °F (2014)
Degree Days  
Heating Degree Days 42    
Moisture  
Dew Point 3 °F    
Average Humidity 44    
Maximum Humidity 61    
Minimum Humidity 28    
Precipitation  
Precipitation 0.00 in - - ()
Sea Level Pressure  
Sea Level Pressure 29.80 in    
Wind  
Wind Speed 7 mph (West)    
Max Wind Speed 23 mph    
Max Gust Speed 33 mph    
Visibility 10 miles    
Events Snow    
Averages and records for this station are not official NWS values.
T = Trace of Precipitation, MM = Missing Value Source: NWS Daily Summary

Daily Weather History Graph

Daily Weather History Graph

Search for Another Location

Airport or City:

Trip Planner

Search our weather history database for the weather conditions in past years. The results will help you decide how hot, cold, wet, or windy it might be!

Date:

Astronomy

Feb. 27, 2014 Rise Set
Actual Time 6:33 AM EST 5:45 PM EST
Civil Twilight 6:05 AM EST 6:12 PM EST
Nautical Twilight 5:34 AM EST 6:44 PM EST
Astronomical Twilight 5:02 AM EST 7:16 PM EST
Moon 5:04 AM EST (2/27) 4:07 PM EST (2/27)
Length of Visible Light 12h 06m
Length of Day
11h 11m
Waning Crescent, 4% of the Moon is Illuminated
Feb 27
Waning Crescent
Mar 1
New
Mar 8
First Quarter
Mar 16
Full
Mar 23
Last Quarter

Hourly Weather History & Observations

Time (EST) Temp. Windchill Dew Point Humidity Pressure Visibility Wind Dir Wind Speed Gust Speed Precip Events Conditions
12:51 AM 19.0 °F - 1.9 °F 47% 29.89 in 10.0 mi Calm Calm - N/A   Clear
1:51 AM 17.1 °F - 1.9 °F 52% 29.86 in 10.0 mi Calm Calm - N/A   Clear
2:51 AM 18.0 °F - 3.9 °F 54% 29.84 in 10.0 mi Calm Calm - N/A   Clear
3:51 AM 17.1 °F - 5.0 °F 59% 29.81 in 10.0 mi Calm Calm - N/A   Clear
4:51 AM 15.1 °F 9.4 °F 3.9 °F 61% 29.78 in 10.0 mi NW 3.5 mph - N/A   Clear
5:51 AM 14.0 °F 6.5 °F 1.9 °F 59% 29.77 in 10.0 mi NNW 4.6 mph - N/A   Clear
6:51 AM 15.1 °F - 3.0 °F 59% 29.75 in 10.0 mi Calm Calm - N/A   Mostly Cloudy
7:51 AM 18.0 °F - 3.9 °F 54% 29.73 in 10.0 mi Calm Calm - N/A   Overcast
8:51 AM 21.9 °F 17.2 °F 7.0 °F 53% 29.73 in 10.0 mi WNW 3.5 mph - N/A   Mostly Cloudy
9:51 AM 28.0 °F 17.0 °F 3.0 °F 34% 29.70 in 10.0 mi SSW 13.8 mph 18.4 mph N/A   Partly Cloudy
10:51 AM 28.9 °F 18.2 °F 6.1 °F 38% 29.68 in 10.0 mi SSW 13.8 mph - N/A   Overcast
11:51 AM 30.0 °F 17.9 °F 10.0 °F 43% 29.66 in 10.0 mi SW 18.4 mph 28.8 mph 0.00 in   Overcast
12:51 PM 32.0 °F 21.2 °F 12.0 °F 44% 29.63 in 10.0 mi SW 16.1 mph 25.3 mph N/A   Partly Cloudy
1:51 PM 30.0 °F 18.3 °F 9.0 °F 41% 29.64 in 10.0 mi West 17.3 mph 31.1 mph 0.00 in Snow Light Snow
2:51 PM 30.0 °F 16.6 °F 5.0 °F 35% 29.66 in 9.0 mi WNW 23.0 mph 33.4 mph 0.00 in Snow Light Snow
3:51 PM 30.0 °F 19.1 °F 5.0 °F 35% 29.69 in 10.0 mi West 15.0 mph 26.5 mph 0.00 in   Scattered Clouds
4:51 PM 30.0 °F 19.5 °F 5.0 °F 35% 29.71 in 10.0 mi West 13.8 mph 23.0 mph N/A   Overcast
5:51 PM 28.9 °F 20.4 °F 6.1 °F 38% 29.75 in 10.0 mi West 9.2 mph - N/A   Scattered Clouds
6:51 PM 27.0 °F 14.3 °F 10.0 °F 49% 29.83 in 10.0 mi WNW 17.3 mph 29.9 mph 0.00 in   Mostly Cloudy
7:51 PM 24.1 °F 10.6 °F 3.9 °F 42% 29.90 in 10.0 mi WNW 17.3 mph 28.8 mph 0.00 in   Scattered Clouds
8:51 PM 21.0 °F 6.6 °F -5.1 °F 32% 29.96 in 10.0 mi WNW 17.3 mph 28.8 mph N/A   Clear
9:51 PM 18.0 °F 1.7 °F -7.1 °F 33% 30.02 in 10.0 mi NW 19.6 mph 26.5 mph N/A   Clear
10:51 PM 16.0 °F -0.9 °F -11.9 °F 28% 30.06 in 10.0 mi NW 19.6 mph 31.1 mph N/A   Clear
11:51 PM 14.0 °F -3.9 °F -11.0 °F 32% 30.11 in 10.0 mi WNW 20.7 mph 32.2 mph N/A   Clear